AXM482 WALL-WMKK

Flight info

Callsign AXM482
Flight time N/A
Altitude 36000
Route GUGUP DCT OSRUT L504 OBDOS M774 JUNHA M635 VTK DCT VJB A457 GUPTA GUPTA1H
Aircraft A320/M-SDE3FGHIRWY/LB1

Departure

Time 2026-04-28 18:51
Airport Sultan Aji Muhammad Sulaiman Sepinggan International Airport (WALL)

Arrival

Time N/A
Airport Kuala Lumpur International Airport (WMKK)
Time Latitude Longitude Altitude Speed Heading
2026-04-28 18:33 -1.26341 116.89774 27 ft 0 kts 335°
2026-04-28 18:45 -1.26348 116.89777 27 ft 4 kts 338°
2026-04-28 18:45 -1.26374 116.89784 27 ft 4 kts 358°
2026-04-28 18:45 -1.26400 116.89781 27 ft 4 kts 26°
2026-04-28 18:46 -1.26404 116.89778 27 ft 0 kts 28°
2026-04-28 18:47 -1.26394 116.89791 27 ft 9 kts 64°
2026-04-28 18:48 -1.26379 116.89881 27 ft 13 kts 66°
2026-04-28 18:48 -1.26346 116.89960 27 ft 11 kts 68°
2026-04-28 18:48 -1.26318 116.90031 27 ft 12 kts 68°
2026-04-28 18:48 -1.26276 116.90126 27 ft 18 kts 64°
2026-04-28 18:49 -1.26221 116.90247 27 ft 20 kts 66°
2026-04-28 18:49 -1.26206 116.90289 27 ft 18 kts 75°
2026-04-28 18:49 -1.26292 116.90455 28 ft 14 kts 139°
2026-04-28 18:49 -1.26358 116.90471 28 ft 8 kts 185°
2026-04-28 18:50 -1.26404 116.90450 28 ft 7 kts 221°
2026-04-28 18:50 -1.26420 116.90427 28 ft 6 kts 243°
2026-04-28 18:50 -1.26427 116.90410 28 ft 0 kts 247°
2026-04-28 18:50 -1.26431 116.90402 28 ft 9 kts 247°
2026-04-28 18:51 -1.26563 116.90088 26 ft 86 kts 246°
2026-04-28 18:51 -1.27013 116.89030 30 ft 159 kts 248°
2026-04-28 18:51 -1.27450 116.87999 581 ft 161 kts 248°
2026-04-28 18:51 -1.27757 116.87287 909 ft 170 kts 249°
2026-04-28 18:52 -1.28253 116.86141 1282 ft 190 kts 248°
2026-04-28 18:52 -1.28784 116.84879 1760 ft 202 kts 249°
2026-04-28 18:52 -1.29309 116.83568 2382 ft 202 kts 250°
2026-04-28 18:52 -1.29808 116.82259 2966 ft 201 kts 251°
2026-04-28 18:53 -1.30282 116.80951 3531 ft 199 kts 252°
2026-04-28 18:53 -1.30761 116.79652 4080 ft 199 kts 251°
2026-04-28 18:53 -1.31231 116.78352 4489 ft 206 kts 252°
2026-04-28 18:53 -1.31685 116.76943 4769 ft 223 kts 253°
2026-04-28 18:54 -1.32191 116.75402 5040 ft 242 kts 248°
2026-04-28 18:54 -1.33151 116.74023 5614 ft 246 kts 219°
2026-04-28 18:54 -1.34684 116.73179 5907 ft 267 kts 195°
2026-04-28 18:54 -1.36563 116.72981 6047 ft 278 kts 173°
2026-04-28 18:55 -1.38460 116.73419 6216 ft 281 kts 160°
2026-04-28 18:55 -1.40340 116.74006 6480 ft 290 kts 163°
2026-04-28 18:55 -1.42361 116.74368 7065 ft 297 kts 183°
2026-04-28 18:55 -1.44280 116.73691 7871 ft 296 kts 217°
2026-04-28 18:56 -1.45530 116.72080 8625 ft 298 kts 245°
2026-04-28 18:56 -1.46394 116.70192 9305 ft 300 kts 239°
2026-04-28 18:56 -1.47372 116.68339 9925 ft 304 kts 252°
2026-04-28 18:56 -1.47681 116.66197 10139 ft 324 kts 272°
2026-04-28 18:57 -1.47389 116.63896 10264 ft 344 kts 282°
2026-04-28 18:57 -1.46767 116.61519 10413 ft 362 kts 287°
2026-04-28 18:57 -1.46006 116.59083 10809 ft 370 kts 288°
2026-04-28 18:57 -1.45241 116.56613 11331 ft 374 kts 287°
2026-04-28 18:58 -1.44524 116.54101 11859 ft 378 kts 285°
2026-04-28 18:58 -1.43865 116.51549 12395 ft 381 kts 284°
2026-04-28 18:58 -1.43257 116.48999 12926 ft 384 kts 283°
2026-04-28 18:58 -1.42662 116.46385 13460 ft 387 kts 283°
2026-04-28 18:59 -1.42073 116.43749 13932 ft 390 kts 283°
2026-04-28 18:59 -1.41477 116.41094 14394 ft 393 kts 283°
2026-04-28 18:59 -1.40868 116.38422 14843 ft 396 kts 283°
2026-04-28 18:59 -1.40249 116.35733 15295 ft 399 kts 283°
2026-04-28 19:00 -1.39619 116.33023 15735 ft 402 kts 283°
2026-04-28 19:00 -1.38980 116.30293 16174 ft 405 kts 283°
2026-04-28 19:00 -1.38337 116.27549 16615 ft 408 kts 283°
2026-04-28 19:00 -1.37690 116.24782 17067 ft 410 kts 283°
2026-04-28 19:01 -1.37043 116.21996 17510 ft 413 kts 283°
2026-04-28 19:01 -1.36391 116.19189 17945 ft 416 kts 283°
2026-04-28 19:01 -1.35732 116.16365 18360 ft 418 kts 283°
2026-04-28 19:01 -1.35070 116.13526 18737 ft 421 kts 283°
2026-04-28 19:02 -1.34404 116.10670 19115 ft 424 kts 283°
2026-04-28 19:02 -1.33733 116.07791 19493 ft 426 kts 283°
2026-04-28 19:02 -1.33060 116.04894 19861 ft 429 kts 283°
2026-04-28 19:02 -1.32383 116.01983 20221 ft 432 kts 283°
2026-04-28 19:03 -1.31700 115.99051 20580 ft 434 kts 283°
2026-04-28 19:03 -1.31013 115.96104 20923 ft 437 kts 283°
2026-04-28 19:03 -1.30323 115.93143 21267 ft 439 kts 283°
2026-04-28 19:03 -1.29628 115.90161 21600 ft 441 kts 284°
2026-04-28 19:04 -1.28930 115.87165 21933 ft 444 kts 284°
2026-04-28 19:04 -1.28229 115.84158 22242 ft 446 kts 284°
2026-04-28 19:04 -1.27522 115.81132 22564 ft 448 kts 284°
2026-04-28 19:04 -1.26809 115.78091 22872 ft 450 kts 284°
2026-04-28 19:05 -1.26093 115.75034 23169 ft 453 kts 284°
2026-04-28 19:05 -1.25376 115.71965 23459 ft 455 kts 284°
2026-04-28 19:05 -1.24657 115.68882 23698 ft 457 kts 284°
2026-04-28 19:05 -1.23936 115.65788 23941 ft 458 kts 284°
2026-04-28 19:06 -1.23214 115.62682 24183 ft 460 kts 284°
2026-04-28 19:06 -1.22734 115.60621 24347 ft 460 kts 284°
2026-04-28 19:06 -1.21772 115.56485 24658 ft 462 kts 284°
2026-04-28 19:06 -1.21040 115.53353 24885 ft 464 kts 284°
2026-04-28 19:07 -1.20305 115.50207 25109 ft 465 kts 284°
2026-04-28 19:07 -1.19569 115.47052 25325 ft 467 kts 284°
2026-04-28 19:07 -1.18833 115.43892 25538 ft 468 kts 284°
2026-04-28 19:07 -1.18095 115.40717 25750 ft 470 kts 284°
2026-04-28 19:08 -1.17354 115.37536 25957 ft 471 kts 284°
2026-04-28 19:08 -1.16608 115.34343 26165 ft 472 kts 284°
2026-04-28 19:08 -1.15864 115.31143 26373 ft 474 kts 284°
2026-04-28 19:08 -1.15119 115.27934 26576 ft 475 kts 284°
2026-04-28 19:09 -1.14369 115.24720 26776 ft 476 kts 284°
2026-04-28 19:09 -1.13611 115.21493 26972 ft 477 kts 284°
2026-04-28 19:09 -1.12854 115.18261 27148 ft 479 kts 284°
2026-04-28 19:09 -1.12097 115.15020 27346 ft 480 kts 284°
2026-04-28 19:10 -1.11337 115.11768 27522 ft 481 kts 284°
2026-04-28 19:10 -1.10579 115.08507 27700 ft 482 kts 284°
2026-04-28 19:10 -1.09818 115.05238 27875 ft 484 kts 284°
2026-04-28 19:10 -1.09054 115.01964 28045 ft 485 kts 284°
2026-04-28 19:11 -1.08287 114.98677 28206 ft 486 kts 284°
2026-04-28 19:11 -1.07517 114.95385 28367 ft 487 kts 284°
2026-04-28 19:11 -1.06746 114.92090 28522 ft 488 kts 284°
2026-04-28 19:11 -1.05972 114.88784 28672 ft 489 kts 284°
2026-04-28 19:12 -1.05199 114.85475 28854 ft 489 kts 283°
2026-04-28 19:12 -1.04430 114.82170 29085 ft 488 kts 283°
2026-04-28 19:12 -1.03658 114.78864 29300 ft 488 kts 283°
2026-04-28 19:12 -1.02897 114.75563 29494 ft 488 kts 283°
2026-04-28 19:13 -1.02186 114.72248 29710 ft 488 kts 282°
2026-04-28 19:13 -1.01522 114.68922 29927 ft 488 kts 281°
2026-04-28 19:13 -1.00883 114.65597 30111 ft 487 kts 281°
2026-04-28 19:13 -1.00249 114.62273 30296 ft 487 kts 281°
2026-04-28 19:14 -0.99603 114.58954 30491 ft 486 kts 281°
2026-04-28 19:14 -0.98949 114.55643 30685 ft 486 kts 282°
2026-04-28 19:14 -0.98285 114.52336 30880 ft 485 kts 282°
2026-04-28 19:14 -0.97609 114.49035 31073 ft 485 kts 282°
2026-04-28 19:15 -0.96932 114.45733 31270 ft 485 kts 282°
2026-04-28 19:15 -0.96260 114.42438 31463 ft 484 kts 282°
2026-04-28 19:15 -0.95597 114.39141 31663 ft 484 kts 282°
2026-04-28 19:15 -0.95161 114.36960 31797 ft 483 kts 282°
2026-04-28 19:16 -0.94283 114.32560 32079 ft 482 kts 282°
2026-04-28 19:16 -0.93624 114.29276 32285 ft 482 kts 282°
2026-04-28 19:16 -0.92961 114.25997 32488 ft 481 kts 282°
2026-04-28 19:16 -0.92294 114.22721 32687 ft 481 kts 282°
2026-04-28 19:17 -0.91631 114.19448 32885 ft 481 kts 282°
2026-04-28 19:17 -0.90980 114.16216 33086 ft 480 kts 282°
2026-04-28 19:17 -0.90320 114.12947 33290 ft 480 kts 282°
2026-04-28 19:17 -0.89660 114.09684 33515 ft 479 kts 282°
2026-04-28 19:18 -0.88997 114.06417 33708 ft 479 kts 282°
2026-04-28 19:18 -0.88339 114.03162 33938 ft 477 kts 282°
2026-04-28 19:18 -0.87686 113.99912 34134 ft 476 kts 282°
2026-04-28 19:18 -0.87037 113.96670 34307 ft 476 kts 282°
2026-04-28 19:19 -0.86387 113.93434 34471 ft 475 kts 282°
2026-04-28 19:19 -0.85738 113.90199 34637 ft 475 kts 282°
2026-04-28 19:19 -0.85088 113.86967 34803 ft 474 kts 282°
2026-04-28 19:19 -0.84437 113.83739 34956 ft 474 kts 282°
2026-04-28 19:20 -0.83783 113.80513 35106 ft 473 kts 282°
2026-04-28 19:20 -0.83127 113.77291 35251 ft 473 kts 282°
2026-04-28 19:20 -0.82473 113.74077 35402 ft 473 kts 282°
2026-04-28 19:20 -0.81819 113.70856 35549 ft 472 kts 282°
2026-04-28 19:21 -0.81170 113.67644 35692 ft 472 kts 282°
2026-04-28 19:21 -0.80524 113.64435 35836 ft 471 kts 282°
2026-04-28 19:21 -0.79226 113.57992 35876 ft 474 kts 282°
2026-04-28 19:22 -0.78132 113.52575 35876 ft 475 kts 282°
2026-04-28 19:22 -0.76615 113.45055 35882 ft 475 kts 282°